This is the latest recevied weather packets stored in our database for station/object IW1QAF-33. If no packets are shown the sender has not sent any weather packets the latest 1 day(s).
| Time | Temp. | Humidity | Pressure | Rain* | Wind** | Luminosity | Snow |
|---|---|---|---|---|---|---|---|
| 1778035151 | 13.33° C | 100% | 1006 hPa | 0.25 mm | - | 0 W/m² | - |
| 1778035105 | 13.33° C | 100% | 1006 hPa | 0.25 mm | - | 0 W/m² | - |
| 1778034501 | 16.11° C | 100% | 1006 hPa | 0.51 mm | - | 0 W/m² | - |
| 1778033898 | 16.11° C | 100% | 1005 hPa | 1.02 mm | - | 0 W/m² | - |
| 1778033294 | 15° C | 100% | 1006 hPa | 0.76 mm | - | 0 W/m² | - |
| 1778032690 | 16.11° C | 100% | 1007 hPa | 0.76 mm | - | 0 W/m² | - |
| 1778030274 | 15° C | 100% | 1007 hPa | 0.51 mm | - | 0 W/m² | - |
| 1778029670 | 14.44° C | 100% | 1007 hPa | 0.51 mm | - | 0 W/m² | - |
| 1778028462 | 13.89° C | 100% | 1007 hPa | 0.25 mm | - | 0 W/m² | - |
| 1778027858 | 15.56° C | 100% | 1008 hPa | 0.25 mm | - | 0 W/m² | - |
| 1778027254 | 15.56° C | 100% | 1009 hPa | 0.25 mm | - | 0 W/m² | - |
| 1778026650 | 16.67° C | 100% | 1008 hPa | 0 mm | - | 0 W/m² | - |
| 1778024838 | 17.22° C | 100% | 1009 hPa | 0 mm | - | 0 W/m² | - |
| 1778020610 | 16.11° C | 100% | 1009 hPa | 0 mm | - | 0 W/m² | - |
| 1778012155 | 15.56° C | 100% | 1010 hPa | 0 mm | - | 0 W/m² | - |
| 1778011551 | 15° C | 100% | 1010 hPa | 0 mm | - | 0 W/m² | - |
| 1778010947 | 15° C | 100% | 1009 hPa | 0 mm | - | 0 W/m² | - |
| 1778009739 | 17.22° C | 100% | 1011 hPa | 0 mm | - | 0 W/m² | - |
| 1778004907 | 18.33° C | 100% | 1012 hPa | 0 mm | - | 1 W/m² | - |
| 1778002491 | 17.78° C | 100% | 1012 hPa | 0 mm | - | 5 W/m² | - |
| 1777993432 | 17.78° C | 100% | 1013 hPa | 0 mm | - | 13 W/m² | - |
| 1777991620 | 18.33° C | 100% | 1013 hPa | 0 mm | - | 15 W/m² | - |
| 1777991016 | 21.11° C | 100% | 1014 hPa | 0 mm | - | 25 W/m² | - |
| 1777989808 | 18.33° C | 100% | 1013 hPa | 0 mm | - | 51 W/m² | - |
* Rain latest hour (hover to see other rain measurements)
** Current wind speed in m/s (hover to see current wind gust speed)